NOAA 16 DEB, 41401

Orbit data source: Space-Track

NOAA 16 DEB, 41401 is space debris in SSO originally from a launch on Thu, 21 Sep 2000 UTC launched from the Air Force Western Test Range (AFWTR). Debris objects in space refer to the collection of defunct objects orbiting the Earth. Examples of debris include non-operational satellites, rocket bodies, and fragments generated from explosions, collisions, or faulty payload assembly.

Loading next visibility...
Identifier
41401, 2000-055KE
Orbit
SSO
Country
Flag of USUS
Related business
Manufacturer
Unknown
Mission
Spacecraft
Bus & Motor
Unknown
Mass
Unknown
Launch date (UTC)
2000-09-21 (25 years ago)
Launch vehicle
Unknown
Launch site
Air Force Western Test Range (AFWTR)
Object type
Payload
Rocket body
Debris
Shape & HBR
Unknown shape, 0.1 m
Radar Cross Section
Small (<0.1 m²)

Expand to show TLE details & history
Last TLE update: 2 days ago

TLE from 2 days ago
0 NOAA 16 DEB
1 41401U 00055KE  25295.32756206  .00004822  00000-0  21849-2 0  9996
2 41401  98.6804 328.4783 0021435 148.3157 211.9316 14.22261169499678
Epoch: 2025-10-22T07:51Z
TLE epoch observation values (Epoch: 2025-10-22T07:51:41.361Z)
Latitude
0.00003°
Longitude
179.5532°
Altitude
833.737 km
Speed
7.429 km/s
True Right ascension
21h 53m 54s
True Declination
0° 00' 00"
Sunlit
Object was in full shadow at epoch
Visualization orbit readout
Latitude
Unknown
Longitude
Unknown
Altitude
Unknown
Speed
Unknown
Apparent Right ascension
Unknown
Apparent Declination
Unknown
Sunlit
N/A
Visualization observer readout
Local Sidereal Time
21:04:57
Azimuth
Unknown
Elevation
Unknown
Doppler factor
Unknown
Orbital elements
Apogee altitude
830.288 km
Perigee altitude
799.452 km
Semi-major axis
7,193.007 km
Eccentricity
0.00214
Inclination
98.6804°
RAAN
328.4783°
Arg. of periapsis
148.3157°
True anomaly
211.80198°
Mean anomaly
211.9316°
Eccentric anomaly
211.86676°
Mean motion
3.55777 °/min
Orbital period
101.19 mins
BSTAR
0.0021849
Loading maneuver chart data...
Computing Atmospheric mass density...
Loading historical data...
Loading historical data...
Loading historical data...
Loading historical data...
Loading historical data...
Loading historical data...
Loading historical data...

Documentation

Showing up to 5 results
|